When you browse on this site, cookies collect data to enhance your experience and personalize the content and advertising you see.
Visit our Privacy Policy to learn more. By continuing to use the site, you agree to this use of cookies and data.
EN

Hourly Weather Verhnyaya Domashka

Today, 21 September, Monday

Time Temperature Precipitation Wind Pressure Humidity
00:00 +5°C° 0 mm 5 mps 750 mmHg 83%
01:00 +5°C° 0 mm 5 mps 751 mmHg 84%
02:00 +5°C° 0 mm 5 mps 751 mmHg 86%
03:00 +3°C° 0 mm 5 mps 752 mmHg 87%
04:00 +3°C° 0 mm 5 mps 752 mmHg 88%
05:00 +3°C° 0 mm 5 mps 753 mmHg 88%
06:00 +3°C° 0 mm 5 mps 753 mmHg 89%
07:00 +5°C° 0 mm 6 mps 754 mmHg 84%
08:00 +7°C° 0 mm 6 mps 754 mmHg 78%
09:00 +8°C° 0 mm 6 mps 754 mmHg 72%
10:00 +8°C° 0 mm 6 mps 754 mmHg 68%
11:00 +9°C° 0 mm 6 mps 754 mmHg 64%
12:00 +10°C° 0 mm 6 mps 754 mmHg 60%
13:00 +10°C° 0 mm 6 mps 754 mmHg 58%
14:00 +11°C° 0 mm 6 mps 754 mmHg 55%
15:00 +11°C° 0 mm 6 mps 754 mmHg 53%
16:00 +10°C° 0 mm 6 mps 754 mmHg 55%
17:00 +10°C° 0 mm 5 mps 753 mmHg 58%
18:00 +10°C° 0 mm 4 mps 753 mmHg 61%
19:00 +10°C° 0 mm 4 mps 753 mmHg 62%
20:00 +10°C° 0 mm 4 mps 753 mmHg 63%
21:00 +10°C° 0 mm 4 mps 753 mmHg 64%
22:00 +9°C° 0 mm 5 mps 753 mmHg 67%
23:00 +9°C° 0 mm 5 mps 753 mmHg 70%

Tomorrow, 22 September, Tuesday

Time Temperature Precipitation Wind Pressure Humidity
00:00 +9°C° 0 mm 5 mps 753 mmHg 73%
01:00 +9°C° 0 mm 5 mps 753 mmHg 75%
02:00 +9°C° 0 mm 5 mps 754 mmHg 76%
03:00 +9°C° 0 mm 5 mps 754 mmHg 78%
04:00 +8°C° 0 mm 5 mps 754 mmHg 81%
05:00 +8°C° 0 mm 4 mps 754 mmHg 84%
06:00 +8°C° 0 mm 4 mps 754 mmHg 87%
07:00 +9°C° 0 mm 5 mps 755 mmHg 82%
08:00 +10°C° 0 mm 5 mps 755 mmHg 77%
09:00 +13°C° 0 mm 6 mps 755 mmHg 72%
10:00 +14°C° 0 mm 6 mps 755 mmHg 68%
11:00 +15°C° 0 mm 6 mps 755 mmHg 65%
12:00 +16°C° 0 mm 6 mps 755 mmHg 61%
13:00 +16°C° 0 mm 6 mps 754 mmHg 59%
14:00 +17°C° 0 mm 6 mps 754 mmHg 57%
15:00 +19°C° 0 mm 6 mps 754 mmHg 55%
16:00 +17°C° 0 mm 6 mps 754 mmHg 58%
17:00 +16°C° 0 mm 6 mps 754 mmHg 62%
18:00 +15°C° 0 mm 6 mps 754 mmHg 65%
19:00 +14°C° 0 mm 6 mps 753 mmHg 68%
20:00 +14°C° 0 mm 6 mps 753 mmHg 70%
21:00 +14°C° 0 mm 6 mps 753 mmHg 73%
22:00 +14°C° 0 mm 6 mps 753 mmHg 75%
23:00 +13°C° 0 mm 6 mps 753 mmHg 78%

Day after tomorrow, 23 September, Wednesday

Time Temperature Precipitation Wind Pressure Humidity
00:00 +13°C° 0 mm 6 mps 752 mmHg 80%
01:00 +13°C° 0 mm 6 mps 752 mmHg 81%
02:00 +13°C° 0 mm 6 mps 752 mmHg 81%
03:00 +13°C° 0 mm 6 mps 753 mmHg 81%
04:00 +13°C° 0 mm 6 mps 753 mmHg 82%
05:00 +11°C° 0 mm 6 mps 753 mmHg 83%
06:00 +11°C° 0 mm 6 mps 753 mmHg 84%
07:00 +13°C° 0 mm 6 mps 753 mmHg 79%
08:00 +14°C° 0 mm 6 mps 754 mmHg 73%
09:00 +16°C° 0 mm 6 mps 754 mmHg 68%
10:00 +17°C° 0 mm 6 mps 754 mmHg 62%
11:00 +19°C° 0 mm 6 mps 755 mmHg 57%
12:00 +20°C° 0 mm 7 mps 755 mmHg 52%
13:00 +20°C° 0 mm 6 mps 755 mmHg 50%
14:00 +20°C° 0 mm 6 mps 755 mmHg 48%
15:00 +20°C° 0 mm 6 mps 756 mmHg 46%
16:00 +17°C° 0 mm 5 mps 756 mmHg 51%
17:00 +15°C° 0 mm 4 mps 756 mmHg 56%
18:00 +15°C° 0 mm 2 mps 757 mmHg 61%
19:00 +14°C° 0 mm 2 mps 757 mmHg 64%
20:00 +13°C° 0 mm 2 mps 758 mmHg 66%
21:00 +13°C° 0 mm 2 mps 758 mmHg 68%
22:00 +12°C° 0 mm 2 mps 758 mmHg 69%
23:00 +11°C° 0 mm 1 mps 759 mmHg 71%

24 September, Thursday

Time Temperature Precipitation Wind Pressure Humidity
00:00 +11°C° 0 mm 1 mps 759 mmHg 73%
01:00 +10°C° 0 mm 1 mps 759 mmHg 74%
02:00 +10°C° 0 mm 1 mps 760 mmHg 76%
03:00 +9°C° 0 mm 1 mps 760 mmHg 78%
04:00 +9°C° 0 mm 1 mps 761 mmHg 77%
05:00 +9°C° 0 mm 1 mps 761 mmHg 77%
06:00 +8°C° 0 mm 0 mps 762 mmHg 77%
07:00 +11°C° 0 mm 1 mps 762 mmHg 69%
08:00 +13°C° 0 mm 1 mps 762 mmHg 60%
09:00 +15°C° 0 mm 1 mps 762 mmHg 52%
10:00 +16°C° 0 mm 1 mps 763 mmHg 47%
11:00 +18°C° 0 mm 1 mps 763 mmHg 42%
12:00 +19°C° 0 mm 1 mps 763 mmHg 38%
13:00 +19°C° 0 mm 1 mps 763 mmHg 37%
14:00 +19°C° 0 mm 1 mps 763 mmHg 36%
15:00 +19°C° 0 mm 1 mps 763 mmHg 35%
16:00 +18°C° 0 mm 1 mps 763 mmHg 38%
17:00 +16°C° 0 mm 2 mps 763 mmHg 42%
18:00 +14°C° 0 mm 2 mps 763 mmHg 46%
19:00 +13°C° 0 mm 2 mps 763 mmHg 49%
20:00 +13°C° 0 mm 2 mps 764 mmHg 52%
21:00 +12°C° 0 mm 2 mps 764 mmHg 54%
22:00 +12°C° 0 mm 2 mps 764 mmHg 57%
23:00 +12°C° 0 mm 2 mps 764 mmHg 59%

25 September, Friday

Time Temperature Precipitation Wind Pressure Humidity
00:00 +10°C° 0 mm 2 mps 765 mmHg 61%
01:00 +10°C° 0 mm 2 mps 765 mmHg 63%
02:00 +10°C° 0 mm 2 mps 765 mmHg 64%
03:00 +10°C° 0 mm 2 mps 765 mmHg 66%
04:00 +10°C° 0 mm 2 mps 765 mmHg 66%
05:00 +9°C° 0 mm 2 mps 765 mmHg 67%
06:00 +9°C° 0 mm 2 mps 765 mmHg 67%
07:00 +12°C° 0 mm 2 mps 765 mmHg 62%
08:00 +13°C° 0 mm 2 mps 765 mmHg 57%
09:00 +14°C° 0 mm 3 mps 766 mmHg 51%
10:00 +16°C° 0 mm 3 mps 766 mmHg 47%
11:00 +17°C° 0 mm 3 mps 766 mmHg 44%
12:00 +18°C° 0 mm 3 mps 766 mmHg 40%
13:00 +18°C° 0 mm 3 mps 765 mmHg 40%
14:00 +18°C° 0 mm 3 mps 765 mmHg 40%
15:00 +18°C° 0 mm 3 mps 765 mmHg 40%
16:00 +16°C° 0 mm 3 mps 765 mmHg 45%
17:00 +14°C° 0 mm 3 mps 765 mmHg 51%
18:00 +12°C° 0 mm 3 mps 765 mmHg 56%
19:00 +12°C° 0 mm 3 mps 765 mmHg 59%
20:00 +11°C° 0 mm 3 mps 765 mmHg 62%
21:00 +11°C° 0 mm 3 mps 765 mmHg 64%
22:00 +10°C° 0 mm 3 mps 765 mmHg 64%
23:00 +10°C° 0 mm 3 mps 765 mmHg 64%

26 September, Saturday

Time Temperature Precipitation Wind Pressure Humidity
00:00 +10°C° 0 mm 3 mps 766 mmHg 63%
01:00 +10°C° 0 mm 3 mps 766 mmHg 62%
02:00 +9°C° 0 mm 3 mps 766 mmHg 62%
03:00 +9°C° 0 mm 3 mps 766 mmHg 61%
04:00 +9°C° 0 mm 3 mps 766 mmHg 62%
05:00 +9°C° 0 mm 3 mps 766 mmHg 62%
06:00 +8°C° 0 mm 3 mps 766 mmHg 62%
07:00 +10°C° 0 mm 3 mps 766 mmHg 57%
08:00 +12°C° 0 mm 3 mps 766 mmHg 52%
09:00 +14°C° 0 mm 3 mps 766 mmHg 46%
10:00 +17°C° 0 mm 4 mps 767 mmHg 43%
11:00 +18°C° 0 mm 4 mps 767 mmHg 39%
12:00 +19°C° 0 mm 4 mps 767 mmHg 35%
13:00 +19°C° 0 mm 4 mps 767 mmHg 35%
14:00 +19°C° 0 mm 4 mps 767 mmHg 36%
15:00 +19°C° 0 mm 4 mps 766 mmHg 36%
16:00 +18°C° 0 mm 3 mps 766 mmHg 41%
17:00 +16°C° 0 mm 3 mps 766 mmHg 46%
18:00 +13°C° 0 mm 3 mps 766 mmHg 52%
19:00 +12°C° 0 mm 3 mps 767 mmHg 54%
20:00 +12°C° 0 mm 3 mps 767 mmHg 57%
21:00 +11°C° 0 mm 3 mps 767 mmHg 59%
22:00 +12°C° 0 mm 2 mps 767 mmHg 60%
23:00 +10°C° 0 mm 2 mps 767 mmHg 61%
Show more